Weather History for Danville, VA

Change the Weather History Date:

Tuesday, December 3, 2013

  Actual Average Record
Temperature  
Mean Temperature 46 °F 43 °F  
Max Temperature 60 °F 53 °F 78 °F (1991)
Min Temperature 32 °F 33 °F 16 °F (1960)
Degree Days  
Heating Degree Days 19 22  
Month to date heating degree days 67 65  
Since 1 July heating degree days 815 774  
Cooling Degree Days 0 0  
Month to date cooling degree days 0 0  
Year to date cooling degree days 1413 1439  
Moisture  
Dew Point 40 °F    
Average Humidity 75    
Maximum Humidity 92    
Minimum Humidity 57    
Precipitation  
Precipitation 0.01 in 0.12 in 1.14 in (1948)
Month to date precipitation 0.01 0.35  
Year to date precipitation 46.56 41.49  
Snow  
Snow 0.00 in - - ()
Month to date snowfall 0.0  
Since 1 July snowfall T  
Snow Depth 0.00 in    
Sea Level Pressure  
Sea Level Pressure 29.93 in    
Wind  
Wind Speed 1 mph (South)    
Max Wind Speed 6 mph    
Max Gust Speed 7 mph    
Visibility 9 miles    
Events Rain    
T = Trace of Precipitation, MM = Missing Value Source: NWS Daily Summary

Daily Weather History Graph

Daily Weather History Graph

Search for Another Location

Airport:

Trip Planner

Search our weather history database for the weather conditions in past years. The results will help you decide how hot, cold, wet, or windy it might be!

Date:

Astronomy

Dec. 03, 2013 Rise Set
Actual Time 7:12 AM EST 5:01 PM EST
Civil Twilight 6:44 AM EST 5:30 PM EST
Nautical Twilight 6:12 AM EST 6:02 PM EST
Astronomical Twilight 5:41 AM EST 6:33 PM EST
Moon 7:41 AM EST (12/3) 6:02 PM EST (12/3)
Length of Visible Light 10h 45m
Length of Day
9h 48m
New Moon, 1% of the Moon is Illuminated
Dec 3
New Moon
Dec 9
First Quarter
Dec 17
Full
Dec 25
Last Quarter
Jan 1
New

Hourly Weather History & Observations

Time (EST) Temp. Dew Point Humidity Pressure Visibility Wind Dir Wind Speed Gust Speed Precip Events Conditions
12:53 AM 39.0 °F 34.0 °F 82% 29.87 in 10.0 mi Calm Calm - N/A   Clear
1:53 AM 36.0 °F 33.1 °F 89% 29.88 in 10.0 mi Calm Calm - N/A   Clear
2:53 AM 36.0 °F 32.0 °F 86% 29.87 in 10.0 mi Calm Calm - N/A   Partly Cloudy
3:53 AM 35.1 °F 32.0 °F 89% 29.87 in 10.0 mi Calm Calm - N/A   Clear
4:53 AM 34.0 °F 30.9 °F 89% 29.87 in 6.0 mi Calm Calm - N/A   Clear
5:53 AM 35.1 °F 32.0 °F 89% 29.89 in 9.0 mi Calm Calm - N/A   Partly Cloudy
6:53 AM 34.0 °F 30.9 °F 89% 29.91 in 9.0 mi Calm Calm - N/A   Clear
7:53 AM 32.0 °F 30.0 °F 92% 29.93 in 4.0 mi Calm Calm - N/A   Clear
8:53 AM 41.0 °F 36.0 °F 82% 29.93 in 7.0 mi Calm Calm - N/A   Overcast
9:53 AM 43.0 °F 37.0 °F 80% 29.94 in 9.0 mi Calm Calm - N/A   Overcast
10:53 AM 50.0 °F 37.9 °F 63% 29.96 in 10.0 mi Calm Calm - N/A   Overcast
11:41 AM 51.8 °F 37.4 °F 58% 29.95 in 10.0 mi Calm Calm - N/A   Overcast
11:53 AM 51.1 °F 39.0 °F 63% 29.94 in 10.0 mi SSW 3.5 mph - N/A   Overcast
12:53 PM 54.0 °F 39.9 °F 59% 29.92 in 10.0 mi Calm Calm - N/A   Overcast
1:53 PM 55.9 °F 41.0 °F 57% 29.90 in 10.0 mi Calm Calm - N/A   Overcast
2:53 PM 57.9 °F 43.0 °F 58% 29.91 in 10.0 mi Calm Calm - N/A   Overcast
3:30 PM 57.2 °F 44.6 °F 63% 29.93 in 10.0 mi Calm Calm - N/A   Overcast
3:53 PM 57.0 °F 45.0 °F 64% 29.93 in 10.0 mi South 3.5 mph - N/A   Overcast
4:30 PM 57.2 °F 46.4 °F 67% 29.94 in 10.0 mi Variable 3.5 mph - N/A   Overcast
4:53 PM 55.9 °F 46.0 °F 69% 29.94 in 10.0 mi Variable 3.5 mph - N/A   Overcast
5:53 PM 55.0 °F 46.0 °F 72% 29.95 in 10.0 mi Calm Calm - N/A   Overcast
6:53 PM 53.1 °F 46.0 °F 77% 29.95 in 10.0 mi SSE 4.6 mph - N/A   Overcast
7:53 PM 51.1 °F 45.0 °F 80% 29.96 in 10.0 mi Calm Calm - N/A   Partly Cloudy
8:53 PM 51.1 °F 44.1 °F 77% 29.96 in 10.0 mi Calm Calm - N/A   Clear
9:53 PM 48.9 °F 44.1 °F 83% 29.97 in 10.0 mi Calm Calm - N/A   Overcast
10:53 PM 48.9 °F 45.0 °F 86% 29.98 in 10.0 mi Calm Calm - N/A   Overcast
11:48 PM 50.0 °F 46.4 °F 87% 30.00 in 8.0 mi Calm Calm - 0.00 in Rain Light Rain
11:53 PM 50.0 °F 45.0 °F 83% 29.99 in 6.0 mi Calm Calm - 0.01 in Rain Light Rain